DW6029 Sullivans Island SC US current weather conditions

sailwx.info

Wind from 155

Air temperature 25.6° C
Dewpoint 22.8° C

Last reported at 2020-Aug-08 10:01 UTC.
Time now 2020-Aug-08 11:04 UTC

Location: N 32°46' W 080°01'.
View on Google Maps.

See reports from other nearby stations

  
Tides and Currents Weather Stations Pressure Air Temp Water Temp Dewpoint Dewpoint Depression Visibility Wind Speed Wind Dir Waves Ship Positions
date/time (UTC)wind fromknots sea level pressurealtimeterstation pressurevisibilityair tempwater tempwave heightnotes
2020-Aug-08 10:01 155 25.6
2020-Aug-08 09:46 155 26.1
2020-Aug-08 09:15 148 0 26.1
2020-Aug-08 09:00 103 25.6
2020-Aug-08 08:45 103 25.6
2020-Aug-08 08:15 100 25.6
2020-Aug-08 08:00 100 25.6
2020-Aug-08 07:45 140 25.6
2020-Aug-08 07:16 176 25.0
2020-Aug-08 07:00 176 25.0
2020-Aug-08 06:45 176 25.0
2020-Aug-08 06:15 176 25.0
2020-Aug-08 06:00 215 25.0
2020-Aug-08 05:45 215 25.0
2020-Aug-08 05:15 009 26.1
2020-Aug-08 05:00 017 26.1
2020-Aug-08 04:45 017 26.1
2020-Aug-08 04:15 017 26.1
2020-Aug-08 04:00 017 26.1
2020-Aug-08 03:45 017 26.1
2020-Aug-08 03:15 017 26.7
2020-Aug-08 03:00 017 26.1
2020-Aug-08 02:45 017 26.1
2020-Aug-08 02:15 017 26.1
2020-Aug-08 02:00 017 26.1
2020-Aug-08 01:45 017 25.6
2020-Aug-08 01:30 017 26.1
2020-Aug-08 01:16 355 0 27.2
2020-Aug-08 00:45 137 1 28.3
2020-Aug-08 00:30 079 1 28.3
2020-Aug-08 00:15 110 1 28.3
2020-Aug-07 23:45 084 1 28.3
2020-Aug-07 23:30 159 2 28.9
2020-Aug-07 23:15 180 1 28.9
2020-Aug-07 22:45 015 1 28.9
2020-Aug-07 22:30 102 1 28.9
2020-Aug-07 22:16 098 1 28.9
2020-Aug-07 21:45 027 2 29.4
2020-Aug-07 21:30 131 3 30.0
2020-Aug-07 21:15 083 2 30.0
2020-Aug-07 20:46 132 2 30.6
2020-Aug-07 20:30 109 3 30.0
2020-Aug-07 20:15 174 2 30.6
2020-Aug-07 19:45 163 2 30.6
2020-Aug-07 19:30 135 2 30.6
2020-Aug-07 19:15 142 2 31.1
2020-Aug-07 18:45 177 2 30.0
2020-Aug-07 18:30 154 3 30.6
2020-Aug-07 18:15 111 2 30.6
2020-Aug-07 18:00 154 2 29.4
2020-Aug-07 17:45 166 2 29.4
2020-Aug-07 17:30 161 3 30.0
2020-Aug-07 17:17 082 3 30.0
2020-Aug-07 17:01 151 3 30.0
2020-Aug-07 16:46 143 2 30.6
2020-Aug-07 16:31 113 1 29.4
2020-Aug-07 16:16 134 2 29.4
2020-Aug-07 16:02 070 2 29.4
2020-Aug-07 15:47 147 2 29.4
2020-Aug-07 15:31 152 2 29.4
2020-Aug-07 15:16 190 2 29.4
2020-Aug-07 15:01 165 3 29.4
2020-Aug-07 14:46 167 2 29.4
2020-Aug-07 14:30 160 0 28.3
2020-Aug-07 14:15 175 0 29.4
2020-Aug-07 14:01 247 0 28.9
2020-Aug-07 13:46 156 0 28.9
2020-Aug-07 13:30 309 0 28.3
2020-Aug-07 13:16 313 0 26.7
2020-Aug-07 13:02 313 26.1
2020-Aug-07 12:45 312 26.1
2020-Aug-07 12:30 313 0 26.1
2020-Aug-07 12:15 030 0 26.1
2020-Aug-07 12:00 030 26.1
2020-Aug-07 11:46 030 26.1
2020-Aug-07 11:30 030 25.6
2020-Aug-07 11:15 030 25.6
2020-Aug-07 11:00 030 25.6
2020-Aug-07 10:45 030 25.6
2020-Aug-07 10:30 051 0 25.6
2020-Aug-07 10:15 081 1 25.6
2020-Aug-07 10:00 155 26.7
2020-Aug-07 09:45 302 0 26.7
2020-Aug-07 09:30 307 0 26.7
2020-Aug-07 09:15 313 0 27.2
2020-Aug-07 09:00 116 27.2
2020-Aug-07 08:30 116 27.2
2020-Aug-07 08:15 116 27.2
2020-Aug-07 08:00 116 27.2
2020-Aug-07 07:31 051 27.2
2020-Aug-07 07:15 054 27.2
2020-Aug-07 07:00 039 27.2
2020-Aug-07 06:30 084 0 27.8
2020-Aug-07 06:15 134 0 27.8
2020-Aug-07 06:00 102 0 27.8
2020-Aug-07 05:30 084 1 27.8
2020-Aug-07 05:15 168 1 27.8
2020-Aug-07 05:00 146 1 27.8
2020-Aug-07 04:31 090 0 27.8
2020-Aug-07 04:15 160 1 27.8
2020-Aug-07 04:00 107 1 27.8
2020-Aug-07 03:45 094 2 28.3
2020-Aug-07 03:30 155 2 28.3
2020-Aug-07 03:15 120 2 28.3
2020-Aug-07 03:00 140 1 27.8
2020-Aug-07 02:45 096 2 28.3
2020-Aug-07 02:30 108 1 28.3
2020-Aug-07 02:15 091 1 28.3
2020-Aug-07 02:01 104 1 28.3
2020-Aug-07 01:45 076 1 28.3
2020-Aug-07 01:30 119 2 28.3
2020-Aug-07 01:15 047 2 28.3
2020-Aug-07 01:00 153 2 28.3
2020-Aug-07 00:45 130 2 28.3
2020-Aug-07 00:31 109 2 28.3
2020-Aug-07 00:15 160 2 27.8
2020-Aug-07 00:00 111 2 27.8
2020-Aug-06 23:45 112 2 27.8
2020-Aug-06 23:30 148 2 28.3
2020-Aug-06 23:15 109 1 28.3
2020-Aug-06 23:00 118 2 28.3
2020-Aug-06 22:45 086 2 28.3
2020-Aug-06 22:30 107 2 28.3
2020-Aug-06 22:15 113 3 28.3
2020-Aug-06 22:00 159 3 28.3
2020-Aug-06 21:46 115 2 28.3
2020-Aug-06 21:30 117 1 28.3
2020-Aug-06 21:15 172 1 28.3
2020-Aug-06 21:00 154 1 28.3
2020-Aug-06 20:45 143 1 28.9
2020-Aug-06 20:30 142 2 28.9
2020-Aug-06 20:15 144 2 29.4
2020-Aug-06 20:00 118 2 30.0
2020-Aug-06 19:45 168 2 30.6
2020-Aug-06 19:30 172 3 30.0
2020-Aug-06 19:15 081 3 30.0
2020-Aug-06 19:00 105 2 30.6
2020-Aug-06 18:45 127 2 30.6
2020-Aug-06 18:30 109 3 30.0
2020-Aug-06 18:15 090 3 30.6
2020-Aug-06 18:00 096 3 30.0
2020-Aug-06 17:45 021 2 30.0
2020-Aug-06 17:30 121 2 30.6
2020-Aug-06 17:15 082 2 29.4
2020-Aug-06 17:00 101 1 28.9
2020-Aug-06 16:45 132 2 28.3
2020-Aug-06 16:18 067 3 29.4
2020-Aug-06 16:00 080 3 30.0
2020-Aug-06 15:45 157 3 29.4
2020-Aug-06 15:16 088 1 29.4
2020-Aug-06 15:01 101 1 30.0
2020-Aug-06 14:45 146 2 30.6
2020-Aug-06 14:15 047 2 31.1
2020-Aug-06 14:00 091 2 30.6
2020-Aug-06 13:45 086 1 30.6
2020-Aug-06 13:15 119 0 29.4
2020-Aug-06 13:01 134 1 28.3
2020-Aug-06 12:45 134 0 28.9
2020-Aug-06 12:16 101 0 28.3
2020-Aug-06 12:00 111 0 27.8
2020-Aug-06 11:45 115 0 27.8
2020-Aug-06 11:15 099 0 27.2
2020-Aug-06 11:00 171 0 27.2